Regional Weather Roundup
Issued by NWS Green Bay, WI

Home | Current Version | Previous Version | Graphics & Text | Print | Product List | Glossary Off
Versions: 1 2 3 4 5 6 7 8 9 10 11 12 13 14 15 16 17 18 19 20 21 22 23 24 25 26 27 28 29 30 31 32 33 34 35 36 37 38 39 40 41 42 43 44 45 46 47 48 49 50

000
ASUS43 KGRB 271810
RWRGRB

NORTH-CENTRAL AND NORTHEAST WISCONSIN REGIONAL WEATHER ROUNDUP
NATIONAL WEATHER SERVICE GREEN BAY WI
1200 PM CST FRI FEB 27 2015

WIZ005-009-010>012-018-019-271900-
NORTH CENTRAL WISCONSIN

CITY           SKY/WX    TMP DP  RH WIND       PRES   REMARKS
IRONWOOD       SUNNY     10  -6  48 W14       30.38S WCI  -5
MANITOWISH WTR SUNNY     10  -6  48 W6        30.37S WCI   0
ARBOR VITAE    SUNNY     11  -5  47 SW6       30.37F WCI   2
EAGLE RIVER    SUNNY     10  -8  43 W9G16     30.36F WCI  -3
LAND O LAKES   SUNNY     14  -8  37 SW9       30.36S WCI   2
RHINELANDER    SUNNY     10  -5  50 W10       30.39S WCI  -4
PHILLIPS       SUNNY     10  -7  47 W6        30.41S WCI   0
ANTIGO         SUNNY      9  -6  50 W9        30.41S WCI  -5
TOMAHAWK       SUNNY     11  -7  45 W5        30.42S WCI   2
MERRILL        SUNNY     11  -7  44 W8        30.44S WCI  -1
$$

WIZ013-073-271900-
NORTHEAST WISCONSIN

CITY           SKY/WX    TMP DP  RH WIND       PRES   REMARKS
IRON MOUNTAIN  SUNNY     13  -5  44 W6        30.39S WCI   4
MARINETTE      SUNNY     12  -2  52 W9        30.47S WCI   0
OCONTO         SUNNY     14  -4  44 W13       30.50S WCI   0
$$

WIZ017-030-035>037-045-271900-
CENTRAL WISCONSIN

CITY           SKY/WX    TMP DP  RH WIND       PRES   REMARKS
MEDFORD        SUNNY      7  -8  50 SW9       30.44F WCI  -7
WAUSAU         SUNNY      7  -9  48 W12       30.46F WCI  -8
MOSINEE        SUNNY      9  -8  47 W10G17    30.49R WCI  -6
MARSHFIELD     SUNNY      8  -7  50 W9        30.49S WCI  -5
WISC RAPIDS    SUNNY     10  -8  44 W10       30.53S WCI  -4
STEVENS POINT  SUNNY      8 -10  45 W12G18    30.50S WCI  -7
WAUPACA        SUNNY     16  -5  38 W9        30.53S WCI   5
SHAWANO        SUNNY     16  -4  40 W12       30.50S WCI   3
CLINTONVILLE   SUNNY     14  -6  41 W13       30.51S WCI   0
$$

WIZ038-039-048-051-271900-
FOX VALLEY

CITY           SKY/WX    TMP DP  RH WIND       PRES   REMARKS
NWS GREEN BAY  SUNNY     14  -2  49 W13       30.52S WCI   0
APPLETON       SUNNY     12  -4  48 W12       30.52R WCI  -2
OSHKOSH        SUNNY     12  -4  48 W10       30.53S WCI  -1
FOND DU LAC    SUNNY     13  -5  44 SW12      30.54F WCI  -1
$$

WIZ022-050-052-271900-
EAST CENTRAL WISCONSIN

CITY           SKY/WX    TMP DP  RH WIND       PRES   REMARKS
STURGEON BAY   SUNNY     12  -6  44 SW13      30.51S WCI  -3
MANITOWOC      SUNNY     16  -2  45 W16       30.54S WCI   1
SHEBOYGAN      SUNNY     13  -4  46 W13       30.54S WCI  -2
$$

LMZ563-521-522-541>543-271900-
LAKESHORE

STATION/POSITION TIME  TEMP    WIND        PRES    VSBY  WAVE
                       AIR SEA DIR/SP/G                  HT/PER
                 (UTC) (F)     (DEG/KT/KT) (MB)    (MI)  (FT/S)
SHEBOYGAN LKSHOR 1800   13     250/ 11/ 14 1036.1F
KEWAUNEE LKSHORE 1800   13     280/ 12/ 17 1032.4F
NORTHPORT PIER   1800   12     230/  6/ 11 1032.2S
SISTER BAY LKSHO 1700          260/  9/ 10   N/A
CHAMBERS ISLAND  1800   10     160/  7/ 10 1032.2S
MENOMINEE LKSHOR 1800   13     250/  9     1032.7S
$$


USA.gov is the U.S. government's official web portal to all federal, state and local government web resources and services.